America's International Challenge - Loft Fiy--Setting

Station: 10 Miles - T Race

Distance: 10 Miles

Release: 09-Jun-2018 07:28

Weather Release:    Arrival:

Wind at Release:     Wind at Arrival:

Temp at Release: °    Temp at Arrival: °

Lofts: 71

Birds: 448

Clocked: 449

Good Luck to Everyone!
Drops Pos Breeder Pigeon Name Color Sex Ent Arrival Speed To Win Eligible
201 Shawnie Murphy - MI 30036-IF18-E BBWF H 5 08:31:52.20 275.560 00:08:06 Yes
202 Morningside Racing Loft - TX 10181-AU18-MSRL BB H 2 08:31:56.30 275.265 00:08:10 Yes
203 A D L Loft - IL 1845-AU18-ADL BC H 4 08:32:12.90 274.079 00:08:27 Yes
204 Stevens Family Loft-The Original - UT 0203-AU18-DWI Christmas Moonlight BBPB H 5 08:32:21.40 273.476 00:08:35 Yes
205 Mark & Johnny - ID 0136-AU18-PNWC BBWF H 5 08:32:28.40 272.981 00:08:42 Yes
206 Donnelly / Emerson - FL 0345-AU18-VK BB H 7 08:32:30.40 272.840 00:08:44 Yes
207 Drama Queen Loft - TX 1021-AU18-GCI BB H 2 08:32:30.80 272.812 00:08:44 Yes
208 Pleasant Task Farm - PA 0815-AU18-PTF DC H 4 08:32:46.50 271.710 00:09:00 Yes
209 Stevens Family Loft-The Original - UT 0202-AU18-DWI Red Queen SLWF H 6 08:33:13.20 269.856 00:09:27 Yes
210 Golden Loft - WA 0508-AU18-RIXE BB H 3 08:33:15.80 269.677 00:09:29 Yes
211 Nick & Barry - NC 0920-AU18-DBS BB H 3 08:34:00.50 266.633 00:10:14 Yes
212 Fassio Loft - UT 0895-AU18-SLI BB H 4 08:35:04.00 262.425 00:11:18 Yes
213 Hmong Syndicate - MN 0006-AU18-HMON 606 BBWF H 4 08:35:20.00 261.386 00:11:34 Yes
214 Chris Mellidis - QC 0824-AU18-GREE SILV H 3 08:35:31.50 260.644 00:11:45 Yes
215 David Knightes - VT 2278-AU18-CVR BB H 4 08:35:39.40 260.137 00:11:53 Yes
216 Jeff Murray - WI 0107-AU18-RRR BB H 4 08:37:23.30 253.645 00:13:37 Yes
217 Bar Flys - SC 0733-AU18-GREE Drambuie BB H 2 08:37:41.40 252.547 00:13:55 Yes
218 Racine Jun Xiao - WI 1206-AU18-RAC BB H 5 08:38:12.00 250.712 00:14:26 Yes
219 Akzona / Crescendo - CO 0810-AU18-AKZ BC H 3 08:38:13.00 250.653 00:14:27 Yes
220 Kelly / Buckner - TX 0041-AU18-KB BB H 5 08:40:36.80 242.380 00:16:50 Yes
221 L S U Loft - LA 0108-AU18-LSU BC H 16 08:41:07.30 240.695 00:17:21 Yes
222 Guo Fu Loft - DC 24116-AU18-ARPU BBWF H 4 08:41:08.20 240.645 00:17:22 Yes
223 Guo Fu Loft - DC 26680-AU18-ARPU BBWF H 5 08:41:11.10 240.486 00:17:25 Yes
224 Power Of Faith Pet Shop - FL 3492-AU18-GHC BBWF H 3 08:41:12.50 240.410 00:17:26 Yes
225 Gold Coast Loft - CA 1809-AU18-GOLD BBWF H 7 08:41:14.60 240.295 00:17:28 Yes
226 Pleasant Task Farm - PA 0827-AU18-PTF BBWF H 5 08:41:14.70 240.289 00:17:28 Yes
227 Il Volo - NJ 34733-IF18-E BCWF H 5 08:41:15.30 240.257 00:17:29 Yes
228 Richard Callahan - MO 0309-AU18-AA BC H 2 08:41:15.40 240.251 00:17:29 Yes
229 A D L Loft - IL 1857-AU18-ADL BC H 5 08:41:15.80 240.229 00:17:29 Yes
230 Racine Jun Xiao - WI 1221-AU18-RAC BB H 6 08:41:17.30 240.147 00:17:31 Yes
231 Dave Dudley/Ron Moden - CO 18044-AU18-PUEB BB H 3 08:41:20.10 239.995 00:17:34 Yes
232 Akzona / Crescendo - CO 2404-AU18-VK BBWF H 4 08:41:23.30 239.820 00:17:37 Yes
233 Steven Loft - TX 4133-AU18-ARPU BC H 8 08:41:32.50 239.320 00:17:46 Yes
234 Hugh Eckerich - SC 80352-AU18-SCO BC H 4 08:41:33.40 239.271 00:17:47 Yes
235 Tri State - CT 1808-AU18-MAS GRIZ H 2 08:41:34.80 239.195 00:17:48 Yes
236 Sam A Miller - KY 4144-AU18-FOYS BBPB H 2 08:41:37.80 239.033 00:17:51 Yes
237 Nanez Family Lofts - WI 8186-AU18-NANE BB H 7 08:41:39.40 238.946 00:17:53 Yes
238 Y Mtn Loft - TN 0308-AU18-TFC BB H 4 08:41:40.10 238.909 00:17:54 Yes
239 Steven Loft - TX 2126-AU18-ARPU BB C 9 08:41:42.00 238.806 00:17:56 Yes
240 M & Y Connection - MI 0149-AU18-MSYP 10 X 92 BBWF H 5 08:41:42.10 238.801 00:17:56 Yes
241 Steven Loft - TX 2116-AU18-ARPU SILV C 10 08:41:45.70 238.606 00:17:59 Yes
242 Nick & Barry - NC 1022-AU18-DBS BC H 4 08:41:46.50 238.563 00:18:00 Yes
243 385 Connection - SC 80003-AU18-SCO BB H 2 08:41:48.10 238.477 00:18:02 Yes
244 385 Connection - SC 8217-AU18-GRPC BB H 3 08:41:48.80 238.439 00:18:02 Yes
245 Gold Coast Loft - CA 1824-AU18-GOLD BB H 8 08:41:50.00 238.375 00:18:04 Yes
246 George T Lim - FL 2047-AU18-VK BB H 3 08:41:51.00 238.321 00:18:05 Yes
247 Bar Flys - SC 0612-AU18-GREE Ouzo BBWF H 3 08:41:52.40 238.246 00:18:06 Yes
248 Akzona / Crescendo - CO 2412-AU18-VK BB H 5 08:41:53.00 238.213 00:18:07 Yes
249 A D L Loft - IL 1852-AU18-ADL BB H 6 08:41:55.80 238.063 00:18:09 Yes
250 Dave Dudley/Ron Moden - CO 18004-AU18-DEHE BB H 4 08:41:56.50 238.025 00:18:10 Yes
251 Wise Loft - IL 0522-AU18-WRC BB H 3 08:41:56.60 238.020 00:18:10 Yes
252 Morningside Racing Loft - TX 10169-AU18-MSRL REC H 3 08:41:57.10 237.993 00:18:11 Yes
253 John Karnofel - CA 0830-AU18-KFL San Francisco Girl BBWF H 3 08:41:57.80 237.956 00:18:11 Yes
254 Y Mtn Loft - TN 0309-AU18-TFC DC H 5 08:41:57.90 237.950 00:18:12 Yes
255 Carter Mayotte - NE 0620-AU18-NGBC BB H 4 08:41:59.50 237.865 00:18:13 Yes
256 Il Volo - NJ 34734-IF18-E BC H 6 08:42:00.00 237.838 00:18:14 Yes
257 Cajun Connection - LA 18026-AU18-LEGU BCWF H 4 08:42:00.10 237.832 00:18:14 Yes
257 Liqing Ni Loft - NY 4509-AU18-ARPU Yang509🦄🦄🦄 BC H 5 08:42:00.10 237.832 00:18:14 Yes
259 Ledet-Gutrz - LA 18092-AU18-LEGU BB H 5 08:42:01.00 237.784 00:18:15 Yes
260 Tri State - CT 1838-AU18-MAS BB H 3 08:42:01.50 237.758 00:18:15 Yes
261 John Karnofel - CA 0836-AU18-KFL Salinas Dream BB H 4 08:42:02.00 237.731 00:18:16 Yes
262 Donnelly / Emerson - FL 0386-AU18-VK BC H 8 08:42:02.50 237.704 00:18:16 Yes
263 Nick & Barry - NC 0936-AU18-DBS BB H 5 08:42:02.80 237.688 00:18:16 Yes
264 Golden Loft - WA 0518-AU18-RIXE BB H 4 08:42:03.70 237.640 00:18:17 Yes
265 Donnelly / Emerson - FL 0344-AU18-VK BB H 9 08:42:04.50 237.597 00:18:18 Yes
266 Barry / Rishier - NJ 0799-AU18-SKI RED H 3 08:42:04.80 237.581 00:18:18 Yes
267 Racing Pigeon Digest - MT 1018-AU18-DIGE GRIZ H 2 08:42:06.30 237.501 00:18:20 Yes
268 Richard Callahan - MO 0341-AU18-AA DC H 3 08:42:06.70 237.479 00:18:20 Yes
269 David Knightes - VT 2281-AU18-CVR GRIZ H 5 08:42:07.20 237.453 00:18:21 Yes
270 Fassio Loft - UT 0942-AU18-SLI BLK H 5 08:42:10.40 237.282 00:18:24 Yes
271 Ed Minvielle - LA 18336-AU18-A DCWF H 2 08:42:12.10 237.191 00:18:26 Yes
272 Tri State - CT 1807-AU18-MAS DCPB H 4 08:42:13.30 237.128 00:18:27 Yes
273 Greek Connection - SC 0648-AU18-GREE GRIZ H 5 08:42:14.00 237.090 00:18:28 Yes
274 Steven Loft - TX 2127-AU18-ARPU BB H 11 08:42:14.80 237.048 00:18:28 Yes
275 Riverside Loft - NJ 0327-IF18-WVC BCH H 3 08:42:15.20 237.026 00:18:29 Yes
276 Baldat & Sons - FL 0318-AU18-BCC BB H 3 08:42:15.90 236.989 00:18:30 Yes
277 Wise Loft - IL 0538-AU18-WRC BB H 4 08:42:17.90 236.883 00:18:31 Yes
278 Bandit Loft - TX 0275-AU18-NBC BC H 2 08:42:38.90 235.772 00:18:53 Yes
279 A D L Loft - IL 1800-AU18-ADL BB H 7 08:42:41.30 235.646 00:18:55 Yes
280 Nick & Barry - NC 1023-AU18-DBS BCWF H 6 08:42:44.80 235.462 00:18:58 Yes
281 Chris Mellidis - QC 0842-AU18-GREE SILV H 4 08:42:49.20 235.231 00:19:03 Yes
282 Racine Jun Xiao - WI 1169-AU18-RAC BC H 7 08:42:49.80 235.200 00:19:03 Yes
283 Riverside Loft - NJ 0326-IF18-WVC BB H 4 08:42:50.80 235.147 00:19:04 Yes
284 David Knightes - VT 2277-AU18-CVR GRIZ H 6 08:42:52.40 235.064 00:19:06 Yes
285 M & Y Connection - MI 0150-AU18-MSYP 10 X 92 BB H 6 08:42:55.20 234.917 00:19:09 Yes
285 David Knightes - VT 2296-AU18-CVR GRIZ H 7 08:42:55.20 234.917 00:19:09 Yes
287 A D L Loft - IL 1895-AU18-ADL RED H 8 08:42:56.10 234.870 00:19:10 Yes
288 Ed Minvielle - LA 18335-AU18-A DC H 3 08:42:57.50 234.797 00:19:11 Yes
289 Watkins Loft - NC 18307-AU18-FAY RC H 4 08:43:00.10 234.661 00:19:14 Yes
290 Mike Bator - NY 1662-IF18-BUFF BBPB H 3 08:43:02.20 234.552 00:19:16 Yes
291 King Brand Syndicate - IA 0099-AU18-BLOC BC H 4 08:43:03.40 234.489 00:19:17 Yes
292 Cajun Connection - LA 18094-AU18-LEGU BB H 5 08:43:06.90 234.307 00:19:21 Yes
293 Lonestar Loft - TX 0023-AU18-CLGA BB H 4 08:43:11.10 234.089 00:19:25 Yes
294 Baldat & Sons - FL 0310-AU18-BCC BB H 4 08:43:11.90 234.048 00:19:25 Yes
295 Ken Easley & Son Racing - NM 8838-AU18-EASL 5386 x 420 BB H 4 08:43:22.50 233.499 00:19:36 Yes
296 Riverside Loft - NJ 0334-IF18-WVC GRIZ H 5 08:43:24.10 233.417 00:19:38 Yes
297 Pleasant Task Farm - PA 0891-AU18-PTF BBWF H 6 08:43:24.40 233.401 00:19:38 Yes
298 Morningside Racing Loft - TX 10170-AU18-MSRL PEN H 4 08:43:35.50 232.830 00:19:49 Yes
299 Guo Fu Loft - DC 24124-AU18-ARPU BC H 6 08:43:37.30 232.738 00:19:51 Yes
300 Baldat & Sons - FL 0301-AU18-BCC BBWF H 5 08:43:39.60 232.620 00:19:53 Yes

There are 456 bird records

Note: These Race Results are unofficial and subject to change until verified by the Race Committee and declared final.

America's International Challenge © 2014 ** Professional Pigeon Racing Tournament  ** Telephone:732-239-3623

HOME                RACE PAYOUT          RULES & INFORMATION         FINAL RESULTS            PHOTOS          CONTACT US
ENTRIES      TRAINING RESULTS        LIVE RESULTS        INVENTORY UPDATE        NEWS & UPDATE

 

Click for Forecast for 29388 from weatherUSA